{"data":{"norad_id":67672,"intl_designator":"2026-022AA","name":"STARLINK-36616","alt_names":[],"object_type":"PAYLOAD","status":"ACTIVE","operator":null,"country":"US","launch_date":"2026-02-02","launch_site_code":"AFWTR","launch_vehicle":null,"mission":null,"orbit_class":"UNKNOWN","rcs_meters":null,"size_class":null,"mass_kg":null,"dimensions":null,"purposes":["comms"],"wikipedia_slug":null,"has_3d_model":false,"image_url":null,"decayed_at":null,"tle_current":{"epoch":"2026-05-25T02:01:45.920928Z","epoch_age_seconds":61581,"freshness":"FRESH","line1":"1 67672U 26022AA  26145.08455927  .00013313  00000+0  41388-3 0  9995","line2":"2 67672  97.2848 178.3926 0001645  93.5707 266.5724 15.33452164 17285","mean_motion":15.33452164,"eccentricity":0.0001645,"inclination_deg":97.2848,"raan_deg":178.3926,"arg_perigee_deg":93.5707,"mean_anomaly_deg":266.5724,"bstar":0.00041388,"rev_number":1728,"period_min":93.905765944715,"perigee_km":464.39607765502,"apogee_km":466.64764141981,"semimajor_km":6843.6588595374,"source":"CELESTRAK","updated_at":"2026-05-25T13:38:21.661982Z"}}}